Date,TemperatureHighF,TemperatureAvgF,TemperatureLowF,DewpointHighF,DewpointAvgF,DewpointLowF,HumidityHigh,HumidityAvg,HumidityLow,PressureMaxIn,PressureMinIn,WindSpeedMaxMPH,WindSpeedAvgMPH,GustSpeedMaxMPH,PrecipitationSumIn
2013-1-1,76,64,50,68,61,49,99,90,71,30.14,29.96,3,0,8,0.25
2013-1-2,67,55,48,66,51,45,97,87,68,30.17,29.96,4,2,9,0.00
2013-1-3,48,44,36,46,42,34,97,94,87,30.34,30.16,4,1,9,0.26
2013-1-4,55,43,34,44,37,32,96,82,48,30.41,30.31,4,1,8,0.00
2013-1-5,54,47,37,46,39,34,96,76,52,30.39,30.24,3,0,7,0.00
2013-1-6,54,50,46,48,44,41,92,82,67,30.29,30.19,4,1,9,0.00
2013-1-7,62,48,38,44,41,36,96,79,46,30.33,30.22,6,1,11,0.00
2013-1-8,63,56,43,58,51,41,96,85,76,30.29,30.19,3,0,8,0.00
2013-1-9,70,65,60,66,63,58,96,93,88,30.29,30.20,6,1,9,0.00
2013-1-10,75,69,64,71,67,63,99,94,86,30.29,30.15,6,1,12,0.16
2013-1-11,76,68,61,71,67,60,100,95,85,30.19,30.07,4,0,9,0.01
2013-1-12,77,70,64,68,67,63,99,90,70,30.15,30.02,6,1,10,0.00
2013-1-13,76,71,67,71,69,66,99,94,83,30.06,29.98,5,1,12,0.02
2013-1-14,74,70,69,73,70,68,99,98,93,30.12,30.03,4,0,10,0.37
2013-1-15,75,70,67,72,70,66,100,97,87,30.07,29.95,4,0,11,0.39
2013-1-16,72,62,51,72,62,51,100,98,93,30.01,29.93,3,0,12,0.56
2013-1-17,51,44,40,50,40,35,98,88,77,30.28,29.98,8,3,22,0.01
2013-1-18,59,44,35,44,38,34,96,80,45,30.51,30.27,6,1,11,0.00
2013-1-19,61,47,33,52,42,32,98,83,56,30.43,30.24,4,0,8,0.00
2013-1-20,67,51,39,51,44,38,99,82,46,30.27,30.13,4,0,9,0.00
2013-1-21,65,50,35,53,43,34,99,81,45,30.21,30.11,3,0,8,0.00
2013-1-22,58,45,35,43,36,28,95,74,38,30.37,30.19,4,1,10,0.00
2013-1-23,66,47,32,52,41,31,98,81,46,30.43,30.30,4,0,6,0.00
2013-1-24,73,55,42,58,50,41,99,85,51,30.34,30.23,4,0,7,0.00
2013-1-25,72,56,43,60,52,42,99,87,63,30.31,30.17,4,0,10,0.00
2013-1-26,72,55,47,63,46,-100,99,84,69,30.27,30.18,5,-52,7,0.00
2013-1-27,73,56,47,62,47,-100,98,81,60,30.34,30.25,3,-29,7,0.00
2013-1-28,70,56,53,65,45,-100,98,84,82,30.33,30.19,3,-84,8,0.00
2013-1-29,76,65,56,70,60,-100,99,90,81,30.19,29.93,4,-28,12,0.07
2013-1-30,77,64,46,73,62,37,99,93,71,30.07,29.65,11,3,23,0.34
2013-1-31,58,44,33,42,33,-100,96,70,34,30.32,30.07,7,-6,13,0.00
2013-2-1,60,44,33,41,36,31,98,79,41,30.40,30.29,7,1,13,0.00
2013-2-2,66,45,29,46,35,26,96,73,29,30.39,30.18,3,0,6,0.00
2013-2-3,66,51,39,50,41,34,99,75,32,30.25,30.11,5,1,8,0.01
2013-2-4,65,51,37,54,44,36,97,81,46,30.14,30.00,2,0,5,0.00
2013-2-5,66,56,53,62,50,-100,99,91,87,30.06,29.97,4,-34,6,0.12
2013-2-6,71,57,52,61,49,-100,99,87,69,30.16,30.04,7,-40,10,0.00
2013-2-7,71,57,54,64,48,-100,99,88,76,30.06,29.80,7,-62,12,1.49
2013-2-8,71,58,52,62,50,-100,99,83,65,30.16,29.94,6,-40,11,0.00
2013-2-9,67,53,42,52,44,40,96,77,38,30.26,30.15,6,1,8,0.00
2013-2-10,70,60,42,69,58,41,98,92,83,30.18,30.02,7,2,14,0.00
2013-2-11,77,65,58,74,64,57,100,97,78,30.11,30.01,10,1,20,2.29
2013-2-12,71,63,58,70,60,-100,99,94,90,30.06,29.75,4,-21,12,0.19
2013-2-13,69,57,47,69,54,45,99,91,68,30.05,29.77,6,1,11,0.12
2013-2-14,55,44,36,47,37,-100,96,85,66,30.16,30.02,4,-32,8,0.00
2013-2-15,65,48,33,50,40,32,99,80,39,30.17,30.03,4,0,7,0.00
2013-2-16,55,46,31,44,33,21,97,65,31,30.28,30.04,8,2,21,0.01
2013-2-17,56,39,28,36,27,17,94,69,26,30.40,30.27,4,0,6,0.00
2013-2-18,64,48,31,46,40,30,98,76,47,30.34,30.09,7,1,12,0.00
2013-2-19,66,53,36,62,41,-100,98,75,43,30.20,30.01,6,-54,12,0.01
2013-2-20,59,44,31,42,33,25,96,70,31,30.26,30.10,6,1,14,0.00
2013-2-21,68,53,33,64,46,32,97,78,43,30.14,29.95,5,1,9,0.00
2013-2-22,69,59,65,69,47,-100,100,87,96,29.98,29.88,5,-111,8,2.38
2013-2-23,71,62,56,71,61,56,100,99,96,29.95,29.79,6,1,10,0.74
2013-2-24,71,60,50,58,53,49,99,80,47,30.01,29.84,6,1,13,0.51
2013-2-25,66,61,56,64,59,55,100,96,85,29.90,29.55,8,2,12,1.68
2013-2-26,66,58,50,66,52,46,99,83,53,29.92,29.51,4,1,9,0.39
2013-2-27,66,52,42,50,45,41,98,79,45,30.02,29.91,3,0,8,0.00
2013-2-28,60,51,42,46,40,34,98,69,38,30.07,29.96,5,1,11,0.00
2013-3-1,56,46,37,40,36,33,92,70,46,30.13,30.00,6,1,10,0.00
2013-3-2,49,40,30,33,30,27,96,68,44,30.17,30.06,8,2,14,0.00
2013-3-3,51,40,31,33,29,24,93,66,36,30.20,30.10,8,2,14,0.00
2013-3-4,66,48,30,50,40,28,97,76,34,30.23,30.02,7,1,12,0.00
2013-3-5,76,61,42,63,56,40,99,84,57,30.12,29.91,6,1,13,0.10
2013-3-6,58,46,38,41,35,29,97,66,37,30.26,30.11,8,2,19,0.00
2013-3-7,65,47,34,46,36,30,94,71,34,30.33,30.20,5,1,8,0.00
2013-3-8,72,51,32,47,39,31,98,70,24,30.31,30.18,4,1,8,0.00
2013-3-9,74,56,42,51,46,41,98,74,38,30.24,30.10,4,0,7,0.00
2013-3-10,74,62,49,61,55,43,95,78,61,30.13,30.00,10,2,18,0.00
2013-3-11,69,55,49,65,50,-100,99,91,84,30.01,29.82,6,-24,16,1.45
2013-3-12,65,44,42,46,19,-100,93,60,34,30.17,29.94,6,-134,12,0.00
2013-3-13,66,51,38,43,37,28,97,65,26,30.33,30.17,9,2,18,0.00
2013-3-14,63,47,34,40,32,25,92,64,25,30.43,30.27,6,1,12,0.00
2013-3-15,76,53,34,51,42,33,98,72,32,30.31,30.15,4,0,10,0.00
2013-3-16,78,59,41,59,51,40,99,78,46,30.15,30.01,5,0,11,0.00
2013-3-17,73,61,51,66,59,50,99,93,73,30.05,29.94,2,0,9,0.00
2013-3-18,80,68,55,71,64,55,99,90,72,29.97,29.81,5,1,13,0.04
2013-3-19,77,63,51,62,55,48,98,80,37,30.05,29.89,4,1,9,0.08
2013-3-20,64,56,40,49,39,34,91,56,35,30.10,29.97,5,1,12,0.00
2013-3-21,64,50,38,44,36,26,95,65,25,30.07,29.92,6,1,11,0.00
2013-3-22,67,57,48,51,41,32,88,56,33,30.02,29.91,7,1,11,0.00
2013-3-23,68,61,55,63,56,44,99,85,59,29.92,29.63,4,1,9,0.11
2013-3-24,84,71,50,71,59,37,100,70,31,29.90,29.55,7,2,16,0.10
2013-3-25,60,49,40,37,30,22,73,49,28,30.20,29.89,8,3,18,0.00
2013-3-26,55,44,33,34,30,26,89,60,36,30.36,30.20,8,2,18,0.00
2013-3-27,62,44,31,39,32,28,93,66,30,30.43,30.27,6,1,10,0.00
2013-3-28,70,50,31,45,36,29,97,66,25,30.37,30.23,5,1,9,0.00
2013-3-29,76,55,36,48,41,34,100,67,26,30.34,30.21,4,0,10,0.00
2013-3-30,78,60,44,60,52,42,99,79,46,30.23,30.07,5,0,10,0.00
2013-3-31,83,67,54,66,61,53,100,83,52,30.08,29.90,4,1,11,0.00
2013-4-1,75,65,54,64,59,52,99,83,56,30.04,29.91,5,1,9,0.00
2013-4-2,81,60,45,53,50,44,97,75,33,30.08,30.01,2,0,8,0.00
2013-4-3,62,44,54,59,16,-100,98,68,75,30.09,29.81,8,-222,11,0.00
2013-4-4,73,56,59,65,40,-100,98,78,70,29.95,29.84,3,-125,7,0.00
2013-4-5,64,56,45,60,51,44,97,86,61,30.10,29.87,7,2,14,0.00
2013-4-6,75,58,39,54,48,38,98,75,42,30.18,30.08,2,0,6,0.00
2013-4-7,80,62,45,64,56,44,98,82,53,30.17,30.06,4,0,8,0.00
2013-4-8,82,66,52,63,58,51,99,78,48,30.12,30.03,4,1,10,0.00
2013-4-9,85,69,55,65,60,54,99,76,45,30.13,30.01,6,1,11,0.00
2013-4-10,85,69,54,68,60,53,99,78,50,30.09,29.92,6,1,12,0.00
2013-4-11,83,72,60,75,69,58,99,92,75,29.92,29.62,6,2,18,1.09
2013-4-12,74,61,50,68,49,-100,99,74,43,29.98,29.73,6,-37,14,0.01
2013-4-13,80,63,44,56,50,44,98,68,31,30.06,29.90,5,1,9,0.00
2013-4-14,62,48,56,61,28,-100,99,78,88,29.98,29.68,8,-174,11,1.85
2013-4-15,82,63,59,73,48,-100,99,79,72,30.07,29.86,2,-106,5,0.01
2013-4-16,89,74,62,74,68,62,100,83,54,30.14,30.05,4,0,9,0.00
2013-4-17,85,72,63,73,68,62,100,86,64,30.16,30.04,4,0,7,0.00
2013-4-18,82,72,60,73,68,59,100,88,69,30.04,29.90,5,1,12,0.00
2013-4-19,75,62,50,74,60,49,98,95,83,30.15,29.84,7,1,13,0.40
2013-4-20,67,52,44,51,37,-100,98,69,43,30.25,30.13,6,-56,14,0.00
2013-4-21,74,59,41,54,48,40,98,71,41,30.23,30.13,6,1,11,0.00
2013-4-22,70,63,55,62,57,48,96,81,68,30.17,30.09,4,1,12,0.00
2013-4-23,79,65,52,64,58,51,99,81,52,30.16,30.05,3,0,7,0.00
2013-4-24,81,67,55,69,63,54,100,89,64,30.15,30.05,3,0,9,0.00
2013-4-25,79,67,57,66,59,46,99,78,54,30.27,30.13,4,1,8,0.00
2013-4-26,82,66,48,60,50,43,94,61,33,30.32,30.21,5,1,9,0.00
2013-4-27,82,68,52,71,63,51,99,86,66,30.25,30.08,4,1,8,0.00
2013-4-28,85,73,65,70,67,63,99,81,51,30.12,29.96,3,0,10,0.00
2013-4-29,80,69,63,70,66,62,99,91,64,30.01,29.91,2,0,9,0.23
2013-4-30,82,69,58,73,66,58,100,92,62,29.99,29.92,6,0,8,0.40
2013-5-1,68,67,66,68,66,65,99,97,93,30.02,29.91,4,1,9,0.34
2013-5-2,76,69,64,69,65,61,95,87,77,30.02,29.91,6,2,11,0.01
2013-5-3,70,67,64,66,64,63,98,91,82,29.95,29.82,7,2,12,0.22
2013-5-4,66,55,46,63,48,41,98,79,41,29.93,29.85,7,3,15,0.66
2013-5-5,76,58,41,62,47,40,98,72,35,29.97,29.80,8,1,13,0.00
2013-5-6,70,58,44,58,50,43,97,78,51,30.01,29.92,4,0,9,0.00
2013-5-7,76,64,51,63,57,51,99,82,57,30.05,29.93,3,0,8,0.00
2013-5-8,82,67,52,66,59,51,99,78,46,30.11,30.02,2,0,8,0.00
2013-5-9,85,69,55,69,62,54,99,80,52,30.15,30.06,3,0,6,0.00
2013-5-10,81,68,57,69,64,56,99,87,64,30.13,29.93,5,0,10,0.00
2013-5-11,74,67,59,70,66,58,99,96,86,30.07,29.95,1,0,6,0.17
2013-5-12,79,70,59,66,60,54,99,75,45,30.11,29.98,4,1,13,0.00
2013-5-13,76,63,46,56,48,41,97,64,30,30.26,30.11,5,1,12,0.00
2013-5-14,83,66,47,60,54,46,98,70,35,30.29,30.16,2,0,7,0.00
2013-5-15,85,69,52,66,57,51,98,71,40,30.23,30.06,4,0,8,0.00
2013-5-16,83,70,60,70,64,57,96,83,61,30.09,30.00,2,0,9,0.00
2013-5-17,85,73,61,73,68,60,99,85,60,30.09,30.00,2,0,9,0.00
2013-5-18,88,75,64,74,69,63,99,84,56,30.12,30.02,2,0,7,0.00
2013-5-19,88,76,65,75,70,64,99,85,56,30.08,30.00,2,0,8,0.00
2013-5-20,90,76,66,76,70,66,99,82,56,30.07,29.96,2,0,6,0.00
2013-5-21,92,76,63,74,68,62,99,78,46,30.03,29.90,3,0,9,0.00
2013-5-22,88,76,63,75,70,62,99,84,58,30.01,29.88,3,0,7,0.00
2013-5-23,91,78,64,73,67,62,99,74,39,30.04,29.94,4,0,10,0.00
2013-5-24,88,75,62,68,62,54,99,68,37,30.16,30.00,5,1,11,0.00
2013-5-25,88,70,52,63,54,49,94,63,27,30.25,30.14,5,0,7,0.00
2013-5-26,90,73,56,69,62,55,97,74,41,30.23,30.13,4,0,10,0.00
2013-5-27,90,74,62,72,63,59,98,71,38,30.20,30.07,4,0,8,0.00
2013-5-28,90,74,59,74,66,57,99,78,50,30.12,30.05,4,1,9,0.00
2013-5-29,89,75,63,75,69,62,99,82,57,30.10,30.02,6,1,10,0.00
2013-5-30,88,77,67,77,70,66,99,81,58,30.12,30.01,7,1,13,0.01
2013-5-31,86,75,69,78,72,68,97,89,62,30.10,30.01,4,0,8,0.13
2013-6-1,88,77,67,77,72,67,99,86,63,30.03,29.96,5,0,9,0.00
2013-6-2,91,78,67,77,72,66,99,85,57,30.00,29.85,4,0,9,0.03
2013-6-3,84,77,69,79,74,68,100,91,75,29.94,29.86,4,0,9,0.00
2013-6-4,92,78,68,78,73,67,100,86,60,29.97,29.91,6,0,9,0.00
2013-6-5,86,76,70,77,74,69,99,92,68,29.97,29.86,5,0,7,0.54
2013-6-6,83,75,69,75,72,69,99,90,73,29.92,29.71,7,1,10,0.14
2013-6-7,87,75,68,76,71,67,99,89,61,29.91,29.74,4,0,11,0.03
2013-6-8,92,78,65,78,72,65,99,84,56,30.05,29.90,4,0,10,0.00
2013-6-9,75,70,70,74,67,-100,100,96,97,30.10,29.97,5,0,8,3.74
2013-6-10,79,74,70,77,73,70,100,98,88,30.11,30.00,1,0,5,0.31
2013-6-11,93,80,69,80,74,68,100,84,50,30.11,29.99,4,0,8,0.00
2013-6-12,95,82,70,80,74,69,100,80,49,30.09,29.99,4,0,8,0.00
2013-6-13,95,83,73,81,76,73,99,80,53,30.02,29.85,4,0,8,0.00
2013-6-14,90,81,71,78,74,69,96,81,57,29.95,29.84,6,1,11,0.00
2013-6-15,93,80,68,78,73,66,96,81,50,30.05,29.93,4,0,8,0.00
2013-6-16,92,80,72,81,76,71,99,86,63,30.08,29.99,4,0,8,0.00
2013-6-17,90,77,72,82,75,72,99,94,69,30.03,29.95,4,0,7,0.13
2013-6-18,89,78,72,80,75,71,100,90,68,30.02,29.89,5,0,9,1.09
2013-6-19,87,76,70,78,74,69,100,92,68,30.04,29.93,4,0,8,0.31
2013-6-20,90,78,69,78,73,68,100,86,57,30.10,30.01,5,0,8,0.04
2013-6-21,89,79,70,78,74,69,99,85,59,30.14,30.05,5,1,10,0.00
2013-6-22,89,77,69,76,72,68,99,85,59,30.13,30.02,5,0,9,0.00
2013-6-23,83,75,69,78,74,69,99,95,79,30.15,30.04,5,0,8,0.06
2013-6-24,91,77,71,80,74,71,100,92,62,30.18,30.09,7,0,9,0.74
2013-6-25,87,78,69,79,74,68,100,90,71,30.16,30.03,3,0,7,0.00
2013-6-26,92,80,69,80,74,68,100,84,54,30.10,29.98,2,0,9,0.00
2013-6-27,92,82,71,80,76,70,99,85,59,30.03,29.89,3,0,8,0.00
2013-6-28,95,81,73,81,76,70,99,88,57,29.92,29.77,8,0,16,0.10
2013-6-29,88,79,72,79,75,71,99,90,71,29.79,29.68,4,0,9,0.16
2013-6-30,85,76,69,78,74,68,99,91,72,29.78,29.69,4,0,6,0.12
2013-7-1,91,78,67,80,72,67,100,83,50,29.90,29.77,2,0,6,0.01
2013-7-2,92,79,68,77,71,67,99,80,49,30.02,29.89,4,0,8,0.00
2013-7-3,74,73,70,74,72,70,99,98,96,30.06,29.95,3,0,6,0.34
2013-7-4,75,72,72,74,69,-100,100,96,95,30.06,29.94,6,-21,12,5.39
2013-7-5,75,72,70,74,72,70,100,99,97,30.11,30.03,4,0,11,2.20
2013-7-6,78,75,70,77,74,70,100,98,92,30.07,30.01,4,0,7,0.28